Hourly Data Report for January 03, 2018

All times are specified in Local Standard Time (LST). Add 1 hour to adjust for Daylight Saving Time where and when it is observed.

OTTAWA INTL A
ONTARIO

45°19'00.000" N
75°40'00.000" W
114.90 m
6106001
71628
YOW

Download Data

Hourly Data (January 2018)
Hourly Data Report for January 3, 2018
Temp Definition
°C
Dew Point Temp Definition
°C
Rel Hum Definition
%
Wind Dir Definition
10's deg

Wind Spd Definition
km/h
Visibility Definition
km
Stn Press Definition
kPa
Hmdx Definition


Wind Chill Definition


Weather Definition


TIME
00:00 Legend Double Dagger -7.6 -12.3 70 23 23 12.9 100.36   -15 Snow
01:00 Legend Double Dagger -8.0 -12.5 70 24 13 24.1 100.36   -14 Cloudy
02:00 Legend Double Dagger -8.0 -12.6 70 23 13 24.1 100.41   -14 LegendNANA
03:00 Legend Double Dagger -8.0 -12.8 69 23 14 24.1 100.42   -14 LegendNANA
04:00 Legend Double Dagger -8.7 -13.1 71 21 11 24.1 100.40   -14 Mostly Cloudy
05:00 Legend Double Dagger -9.6 -13.3 74 20 4 24.1 100.38   -12 LegendNANA
06:00 Legend Double Dagger -9.3 -13.4 72 17 8 24.1 100.38   -14 LegendNANA
07:00 Legend Double Dagger -8.2 -13.8 64 21 23 24.1 100.39   -16 Cloudy
08:00 Legend Double Dagger -8.0 -12.4 71 20 13 24.1 100.41   -14 LegendNANA
09:00 Legend Double Dagger -7.8 -10.7 80 17 18 16.1 100.41   -15 Snow
10:00 Legend Double Dagger -7.0 -10.2 78 20 23 24.1 100.43   -15 Snow
11:00 Legend Double Dagger -8.1 -10.9 80 17 19 24.1 100.37   -15 Snow
12:00 Legend Double Dagger -7.7 -11.2 76 20 19 24.1 100.32   -15 Snow
13:00 Legend Double Dagger -7.7 -11.5 74 19 21 24.1 100.21   -15 Snow
14:00 Legend Double Dagger -7.7 -11.9 72 18 17 24.1 100.17   -14 LegendNANA
15:00 Legend Double Dagger -7.6 -12.6 68 19 21 24.1 100.17   -15 LegendNANA
16:00 Legend Double Dagger -7.9 -13.5 65 18 17 24.1 100.16   -15 Cloudy
17:00 Legend Double Dagger -7.8 -13.6 63 18 19 24.1 100.14   -15 LegendNANA
18:00 Legend Double Dagger -7.9 -13.8 63 18 21 24.1 100.17   -15 LegendNANA
19:00 Legend Double Dagger -8.0 -15.0 57 18 16 16.1 100.22   -15 Cloudy
20:00 Legend Double Dagger -8.2 -15.5 56 17 12 12.9 100.22   -14 Snow
21:00 Legend Double Dagger -8.3 -13.9 64 18 12 12.9 100.17   -14 Snow
22:00 Legend Double Dagger -8.3 -14.3 62 15 12 24.1 100.16   -14 Cloudy
23:00 Legend Double Dagger -8.1 -13.5 65 14 15 24.1 100.15   -14 LegendNANA

Notes on Data Quality.

Legend

  • E = Estimated
  • M = Missing
  • NA = Not Available
  • ‡ = Partner data that is not subject to review by the National Climate Archives
Date modified: